Overview Statistics Trail Chart Weather Telemetry Raw packets
 

This is the latest recevied weather packets stored in our database for station/object KC5TIL. If no packets are shown the sender has not sent any weather packets the latest 10 day(s).

<< 106 107 108 109 110 111 112 >>
Time Temp. Humidity Pressure Rain* Wind** Luminosity Snow
1787804515 30.56° C 62% 1015.4 hPa 0 mm - 0 W/m² -
1787804214 30.56° C 62% 1015.2 hPa 0 mm - 0 W/m² -
1787803909 30.56° C 62% 1015.2 hPa 0 mm - 0 W/m² -
1787803604 30.56° C 62% 1015.1 hPa 0 mm - 0 W/m² -
1787803303 30.56° C 62% 1015.2 hPa 0 mm - 0 W/m² -
1787802998 30.56° C 62% 1015.2 hPa 0 mm - 0 W/m² -
1787802697 30.56° C 62% 1015 hPa 0 mm - 0 W/m² -
1787802396 30.56° C 63% 1015 hPa 0 mm - 0 W/m² -
1787802091 30.56° C 63% 1015.1 hPa 0 mm - 0 W/m² -
1787801787 30.56° C 64% 1015.1 hPa 0 mm - 0 W/m² -
1787801481 30.56° C 64% 1015.2 hPa 0 mm - 0 W/m² -
1787801174 31.11° C 63% 1015 hPa 0 mm - 0 W/m² -
1787800869 31.11° C 60% 1014.9 hPa 0 mm - 0 W/m² -
1787800564 31.11° C 59% 1014.8 hPa 0 mm - 0 W/m² -
1787800263 31.11° C 58% 1014.9 hPa 0 mm - 0 W/m² -
1787799959 31.11° C 58% 1014.8 hPa 0 mm - 0 W/m² -
1787799658 30.56° C 61% 1014.5 hPa 0 mm - 0 W/m² -
1787799355 31.11° C 57% 1014.5 hPa 0 mm - 0 W/m² -
1787799054 31.11° C 60% 1014.3 hPa 0 mm - 0 W/m² -
1787798753 30.56° C 61% 1014.2 hPa 0 mm - 0 W/m² -
1787798449 30.56° C 61% 1014.2 hPa 0 mm - 0 W/m² -
1787798144 31.11° C 62% 1014.1 hPa 0 mm - 0 W/m² -
1787797842 30.56° C 58% 1014 hPa 0 mm - 0 W/m² -
1787797537 31.11° C 58% 1013.8 hPa 0 mm - 0 W/m² -
1787797231 31.11° C 57% 1013.7 hPa 0 mm - 0 W/m² -

* Rain latest hour (hover to see other rain measurements)
** Current wind speed in m/s (hover to see current wind gust speed)